STARLINK-2699

operational
NORAD ID: 48433 Int'l Des: 2021-040 Owner: SPXS Country: US Constellation: starlink
LEOCIRCULARSTARLINK_TYPE

Über STARLINK-2699

Beschreibung wird geladen...

Live-Position

3D-Globus wird geladen...

Nächste Überflüge

Höhenverlauf

Altitude vs Time

uPlot chart will show altitude changes over time

Zweizeiliger Elementsatz

1 48433U 21040F 25252.20702603 -.00001114 00000-0 -55900-4 0 9997
2 48433 53.0531 246.6077 0001492 87.7152 272.4008 15.06393146239688
Epoch: 9. Sept. 2025 • Age: 11 hours

Aktueller Status

Höhe 566.2 km
Geschwindigkeit 7.58 km/s
Subsatellitenpunkt -51.71°S, 87.96°W
Startdatum 9. Mai 2021
Alter 4.3 years
Typ internet

Technische Details

Klassifizierung Payload
Masse 260.00 kg
Trockenmasse 248.00 kg
Gesamtmasse 260.00 kg
Länge 0.20 m
Durchmesser 2.80 m
Spannweite 9.00 m
Form Box + pan
Hersteller SPXS
Bus-Typ Starlink
Phasenstatus In Orbit
Besitzer/Staat SPXS/US

Große Konstellationen

Loading constellations...